Preview of NWS' New Version of Forecast
This preview is not operational and should not be used for support decisions.

Regional Weather Roundup (RWR)

Issued by National Weather Service (NWS)

                            
000
ASUS46 KPQR 232110
RWROR 

OREGON REGIONAL WEATHER ROUNDUP
NATIONAL WEATHER SERVICE PORTLAND OR
200 PM PDT THU MAY 23 2019

NOTE: "FAIR" INDICATES FEW OR NO CLOUDS BELOW 12,000 FEET WITH
NO SIGNIFICANT WEATHER AND/OR OBSTRUCTIONS TO VISIBILITY.

ORZ001>013-232200-
NORTHWEST OREGON

  
CITY           SKY/WX    TMP DP  RH WIND       PRES   REMARKS
ASTORIA        CLOUDY    57  52  83 W7        30.03F                  
TILLAMOOK      CLOUDY    57  52  82 CALM      30.05F                  
NEWPORT        CLOUDY    54  52  94 NW9       30.08S FOG              
PORTLAND       FAIR      67  53  61 CALM      29.97F                  
VANCOUVER WA   FAIR      67  55  65 VRB3      29.96F                  
SCAPPOOSE      FAIR      70  57  63 SE6       29.95F                  
HILLSBORO      FAIR      71  55  56 CALM      29.95F                  
AURORA         FAIR      66  54  65 CALM      29.98F                  
MCMINNVILLE    FAIR      67  57  70 SE6       29.97F                  
SALEM          FAIR      66  54  65 CALM      29.97F                  
CORVALLIS      FAIR      66  57  72 SE6       29.99F                  
EUGENE         FAIR      66  54  65 N3        30.00F                  
$$

ORZ021-028-232200-
SOUTHWEST OREGON

  
CITY           SKY/WX    TMP DP  RH WIND       PRES   REMARKS
NORTH BEND     CLOUDY    58  54  86 NW15      30.07S                  
BROOKINGS      FAIR      69  55  60 NW12G21   29.91F                  
ROSEBURG       FAIR      69  50  50 N8        29.97F                  
SEXTON SUMMIT  LGT RAIN  57  48  72 VRB5      29.99S                  
GRANTS PASS    FAIR      72  45  37 N12G20    29.96F                  
MEDFORD        FAIR      71  45  39 W12       29.91F                  
$$

ORZ014>016-041-232200-
COLUMBIA GORGE

  
CITY           SKY/WX    TMP DP  RH WIND       PRES   REMARKS
TROUTDALE      FAIR      66  54  65 W7        29.97F                  
HOOD RIVER     FAIR      79  41  25 CALM      29.89F                  
THE DALLES     FAIR      81  43  26 VRB3      29.85F                  
$$

ORZ029>031-041-044-049-050-061>064-502-503-505>511-232200-
EASTERN OREGON

  
CITY           SKY/WX    TMP DP  RH WIND       PRES   REMARKS
MADRAS         FAIR      70  37  30 N21       29.95F                  
REDMOND        FAIR      69  39  33 NW18G26   29.93F                  
BEND           FAIR      66  37  34 N16G23    29.94F                  
PRINEVILLE     FAIR      66  36  32 N20G25    29.92F                  
KLAMATH FALLS  PTSUNNY   65  37  35 NE8       29.92F                  
LAKEVIEW       LGT RAIN  50  45  83 N12       29.93F                  
HERMISTON      FAIR      79  40  24 VRB5      29.84F                  
PENDLETON      FAIR      72  46  39 N10       29.86F                  
JOHN DAY       CLOUDY    63  38  39 N13G20    29.87F                  
MEACHAM        FAIR      62  42  47 VRB3      29.91F                  
LA GRANDE      FAIR      69  38  32 N12       29.85F                  
BAKER CITY     PTSUNNY   65  32  29 NW22G29   29.84S                  
BURNS          LGT RAIN  59  38  45 N9        29.87S                  
ROME             N/A     58  40  51 NE12G25   29.83F                  
ONTARIO        FAIR      77  36  22 N9G17     29.76F                  
$$